Location: Doux
(49.5045°N, 4.4321°E)
Time: 04:11:34
(UTC+00:00)

Cosmos 1697 Rocket - Pass Details

Date: 23 May 2024
Orbit: 833 x 842 km, 71.0° (Epoch: 21 June)

Event Time Altitude Azimuth Distance (km) Brightness Sun altitude
Rises 00:57:36 0° 319° (NW) 3,398 6.3 -17.7°
Reaches altitude 10° 01:00:48 10° 301° (WNW) 2,456 5.2 -17.5°
Maximum altitude 01:04:26 18° 261° (W) 1,955 4.3 -17.3°
Enters shadow 01:05:31 17° 247° (WSW) 2,002 4.3 -17.3°
